FW3322 Weather Reports


Display with metric or nautical units.
time (UTC)temp
F
wind
direction
speed
MPH
gust
MPH
rain 1hr
in
rain 24hr
in
rain mn
in
humidity
%
barometer
mb
20260906063124 79 211 0.0 1.0 0.00 0.00 0.00 79 1012.3
20260906061522 80 38 0.0 0.0 0.00 0.00 0.00 80 1012.2
20260906060022 80 38 0.0 0.0 0.00 0.00 0.00 81 1012.3
20260906054520 80 40 0.0 1.0 0.00 0.00 0.00 82 1012.4
20260906053026 80 134 0.0 0.0 0.00 0.00 0.00 82 1012.4
20260906051520 80 134 0.0 0.0 0.00 0.00 0.00 81 1012.4
20260906050044 80 62 0.0 0.0 0.00 0.00 0.00 82 1012.3
20260906044515 80 62 0.0 1.0 0.00 0.00 0.00 83 1012.3
20260906043015 81 209 0.0 0.0 0.00 0.00 0.00 80 1012.3
20260906041516 81 209 0.0 0.0 0.00 0.00 0.00 79 1012.3
20260906040014 81 209 0.0 0.0 0.00 0.00 0.00 79 1012.3
20260906034514 81 209 0.0 0.0 0.00 0.00 0.00 77 1012.3
20260906033014 82 209 0.0 0.0 0.00 0.00 0.00 76 1012.1
20260906031519 82 209 0.0 0.0 0.00 0.00 0.00 75 1011.9
20260906030011 83 209 0.0 0.0 0.00 0.00 0.00 74 1011.8
20260906024510 83 209 0.0 0.0 0.00 0.00 0.00 73 1011.6
20260906023010 84 205 0.0 0.0 0.00 0.00 0.00 72 1011.4
20260906021510 85 205 0.0 0.0 0.00 0.00 0.00 70 1011.2
20260906020010 86 205 0.0 0.0 0.00 0.00 0.00 68 1011.2
20260906014510 87 205 0.0 0.0 0.00 0.00 0.00 66 1011.0
20260906013010 88 205 0.0 0.0 0.00 0.00 0.00 64 1010.8
20260906011508 90 205 0.0 0.0 0.00 0.00 0.00 63 1010.7
20260906010007 92 205 0.0 0.0 0.00 0.00 0.00 62 1010.6
20260906004507 94 205 0.0 0.0 0.00 0.00 0.00 59 1010.7
20260906003006 96 205 0.0 0.0 0.00 0.00 0.00 55 1010.7
20260906001505 99 167 0.0 0.0 0.00 0.00 0.00 50 1010.7
20260906000005 101 127 0.0 0.0 0.00 0.00 0.00 46 1010.7
20260905234503 101 121 0.0 1.0 0.00 0.00 0.00 48 1010.6
20260905233003 101 128 0.0 4.0 0.00 0.00 0.00 45 1010.5
20260905231503 102 116 0.0 5.0 0.00 0.00 0.00 45 1010.4
20260905230002 103 92 0.0 2.0 0.00 0.00 0.00 44 1010.5
20260905224609 103 156 2.0 3.0 0.00 0.00 0.00 44 1010.5
20260905223059 102 140 2.0 7.0 0.00 0.00 0.00 45 1010.6
20260905223002 102 127 1.0 5.0 0.00 0.00 0.00 45 1010.6
20260905221600 102 133 2.0 8.0 0.00 0.00 0.00 44 1010.6
20260905220057 102 322 0.0 6.0 0.00 0.00 0.00 44 1010.8
20260905214606 102 111 3.0 8.0 0.00 0.00 0.00 44 1010.8
20260905213053 101 195 4.0 9.0 0.00 0.00 0.00 45 1010.9
20260905211551 102 138 5.0 8.0 0.00 0.00 0.00 45 1011.3
20260905210050 102 107 3.0 10.0 0.00 0.00 0.00 45 1011.4
20260905204548 103 226 5.0 8.0 0.00 0.00 0.00 45 1011.6
20260905203045 103 186 2.0 7.0 0.00 0.00 0.00 45 1011.9
20260905201541 102 130 1.0 9.0 0.00 0.00 0.00 45 1012.0
20260905200043 102 17 1.0 7.0 0.00 0.00 0.00 45 1012.3
20260905194534 101 218 3.0 7.0 0.00 0.00 0.00 45 1012.5
20260905193032 101 115 2.0 8.0 0.00 0.00 0.00 47 1012.6
20260905191529 99 155 5.0 9.0 0.00 0.00 0.00 48 1012.9
20260905190029 98 14 2.0 7.0 0.00 0.00 0.00 51 1013.0
20260905184536 98 65 2.0 6.0 0.00 0.00 0.00 51 1013.4
20260905183030 98 126 1.0 7.0 0.00 0.00 0.00 51 1013.6
20260905181526 99 132 6.0 9.0 0.00 0.00 0.00 50 1013.8
20260905180024 100 340 3.0 6.0 0.00 0.00 0.00 49 1013.9
20260905174529 99 60 1.0 5.0 0.00 0.00 0.00 50 1014.1
20260905173015 99 211 0.0 5.0 0.00 0.00 0.00 51 1014.4
20260905171510 98 212 0.0 7.0 0.00 0.00 0.00 51 1014.6
20260905170006 97 348 0.0 6.0 0.00 0.00 0.00 53 1014.7
20260905164503 96 225 1.0 4.0 0.00 0.00 0.00 54 1014.7
20260905163002 96 15 0.0 6.0 0.00 0.00 0.00 55 1014.6
20260905161558 95 221 0.0 7.0 0.00 0.00 0.00 56 1014.7
20260905161500 95 209 1.0 7.0 0.00 0.00 0.00 56 1014.8
20260905160059 94 286 2.0 5.0 0.00 0.00 0.00 58 1014.8
20260905154555 92 142 4.0 8.0 0.00 0.00 0.00 60 1014.9
20260905153053 92 130 2.0 8.0 0.00 0.00 0.00 60 1014.7
20260905151546 91 205 1.0 9.0 0.00 0.00 0.00 61 1014.7
20260905150043 90 296 0.0 5.0 0.00 0.00 0.00 63 1014.5
20260905144548 90 198 0.0 4.0 0.00 0.00 0.00 65 1014.5
20260905143039 89 184 0.0 4.0 0.00 0.00 0.00 66 1014.6
20260905141600 87 152 0.0 4.0 0.00 0.00 0.00 67 1014.6
20260905140030 85 142 0.0 4.0 0.00 0.00 0.00 71 1014.7
20260905134525 84 205 0.0 5.0 0.00 0.00 0.00 73 1014.5
20260905133024 82 195 0.0 4.0 0.00 0.00 0.00 76 1014.4
20260905131516 80 134 0.0 1.0 0.00 0.00 0.00 81 1014.3
20260905130012 78 134 0.0 0.0 0.00 0.00 0.00 85 1014.2
20260905124510 75 134 0.0 0.0 0.00 0.00 0.00 89 1014.0
20260905123007 0 0.0 0.0 0.00 0.00 0.00 1013.9
20260905121501 0 0.0 0.0 0.00 0.00 0.00 1013.7
20260905120059 0 0.0 0.0 0.00 0.00 0.00 1013.7
20260905114625 0 0.0 0.0 0.00 0.00 0.00 1013.5
20260905113048 0 0.0 0.0 0.00 0.00 0.00 1013.4
20260905111551 0 0.0 0.0 0.00 0.00 0.00 1013.4
20260905110040 0 0.0 0.0 0.00 0.00 0.00 1013.2
20260905104535 0 0.0 0.0 0.00 0.00 0.00 1013.2
20260905103035 0 0.0 0.0 0.00 0.00 0.00 1013.2
20260905101529 72 137 0.0 0.0 0.00 0.00 0.00 91 1013.1
20260905100029 73 137 0.0 0.0 0.00 0.00 0.00 92 1013.1
20260905094527 73 136 0.0 0.0 0.00 0.00 0.00 91 1013.1
20260905093029 74 136 0.0 0.0 0.00 0.00 0.00 90 1013.1
20260905091524 74 136 0.0 0.0 0.00 0.00 0.00 90 1013.0
20260905090023 74 136 0.0 0.0 0.00 0.00 0.00 89 1013.0
20260905084521 74 136 0.0 0.0 0.00 0.00 0.00 89 1012.8
20260905083021 74 136 0.0 0.0 0.00 0.00 0.00 89 1012.8
20260905081520 75 136 0.0 0.0 0.00 0.00 0.00 89 1012.7
20260905080021 75 136 0.0 0.0 0.00 0.00 0.00 88 1012.7
20260905074518 76 137 0.0 0.0 0.00 0.00 0.00 88 1012.8
20260905073019 76 136 0.0 0.0 0.00 0.00 0.00 87 1012.8
20260905071514 76 136 0.0 0.0 0.00 0.00 0.00 87 1012.8
20260905070013 77 136 0.0 0.0 0.00 0.00 0.00 86 1012.9
20260905064513 77 136 0.0 0.0 0.00 0.00 0.00 86 1013.0